Location: Bussy-Saint-Martin
(48.8490°N, 2.6904°E)
Time: 15:50:44
(UTC+00:00)

Daily predictions for brighter satellites

Satellite Brightness Start Highest point End
(mag) Time Altitude Azimuth Time Altitude Azimuth Time Altitude Azimuth
STARLINK-1089 3.7 20:14:50 10° WNW 20:18:57 71° SSW 20:23:05 10° SE
Cosmos 1371 Rocket 4.0 20:14:59 10° S 20:20:11 65° ESE 20:25:21 10° NNE
Abrixas rocket 1.9 20:17:47 10° WSW 20:20:43 70° S 20:23:41 10° E
STARLINK-1109 4.2 20:17:03 10° WNW 20:21:09 56° NNE 20:25:15 10° E
STARLINK-1231 3.8 20:18:26 10° SW 20:22:26 50° SE 20:26:28 10° ENE
Cosmos 1703 Rocket 3.6 20:19:12 10° S 20:23:31 85° W 20:27:53 10° N
STARLINK-1107 3.8 20:19:49 10° WNW 20:23:57 67° SSW 20:28:03 10° SE
ATLAS CENTAUR R/B 2.8 20:22:00 10° W 20:24:27 29° NNW 20:26:12 10° NE
ISS -3.3 20:21:06 10° WNW 20:24:28 62° NNE 20:27:48 10° E
STARLINK-1212 2.9 20:21:39 10° WSW 20:24:46 89° NNW 20:27:54 10° ENE
STARLINK-1234 3.2 20:21:54 10° WSW 20:25:04 73° NNW 20:28:16 10° ENE
STARLINK-1105 2.9 20:22:07 10° WSW 20:25:14 88° NNW 20:28:22 10° ENE
ERS-1 Rocket 4.0 20:20:52 10° SE 20:25:19 33° ENE 20:29:48 10° N
STARLINK-1247 2.9 20:23:00 10° WSW 20:26:07 87° NNW 20:29:15 10° ENE
STARLINK-1091 4.2 20:22:02 10° WNW 20:26:09 58° NNE 20:30:14 10° E
Meteor 1-18 Rocket 4.2 20:20:45 10° S 20:26:19 83° E 20:32:01 10° NNE
Cosmos 2279 Rocket 4.5 20:20:20 10° N 20:26:20 45° ENE 20:32:16 10° SE
STARLINK-1227 2.9 20:23:27 10° WSW 20:26:34 87° NNW 20:29:41 10° ENE
Cosmos 1954 Rocket 4.2 20:21:25 10° NNW 20:26:41 66° ENE 20:31:55 10° SSE
STARLINK-1232 3.7 20:23:22 10° SW 20:27:24 53° SSE 20:31:27 10° ENE
STARLINK-1226 2.9 20:24:21 10° WSW 20:27:28 86° NNW 20:30:37 10° ENE
STARLINK-1215 2.9 20:25:15 10° WSW 20:28:22 85° NNW 20:31:30 10° ENE
STARLINK-1066 3.8 20:24:50 10° WNW 20:28:56 63° SSW 20:33:01 10° SE
Okean 2 Rocket 3.6 20:25:26 10° N 20:29:43 45° ENE 20:33:57 10° SSE
STARLINK-1217 2.9 20:27:04 10° WSW 20:30:11 83° NNW 20:33:18 10° ENE
Terra 3.4 20:26:46 10° ESE 20:30:28 23° ENE 20:34:11 10° N
STARLINK-1229 3.0 20:27:56 10° WSW 20:31:03 82° NNW 20:34:11 10° ENE
STARLINK-1072 4.1 20:27:01 10° WNW 20:31:08 60° NNE 20:35:14 10° E
STARLINK-1270 3.0 20:28:51 10° WSW 20:31:58 81° NNW 20:35:06 10° ENE
STARLINK-1208 3.7 20:28:18 10° SW 20:32:22 57° SSE 20:36:27 10° ENE
STARLINK-1189 3.0 20:30:38 10° WSW 20:33:45 79° NNW 20:36:53 10° ENE
STARLINK-1081 3.9 20:29:49 10° WNW 20:33:54 58° SSW 20:37:52 11° SE
STARLINK-1209 3.5 20:31:09 10° WSW 20:34:22 63° NNW 20:37:35 10° ENE
STARLINK-1188 3.0 20:31:34 10° WSW 20:34:41 78° NNW 20:37:49 10° ENE
STARLINK-1235 3.3 20:32:17 10° WSW 20:35:22 66° NNW 20:38:29 10° ENE
Lacrosse 5 2.2 20:30:37 10° NW 20:35:40 65° NNE 20:40:42 10° ESE
STARLINK-1187 3.1 20:32:41 10° WSW 20:35:46 71° NNW 20:38:52 10° ENE
STARLINK-1096 4.0 20:32:01 10° WNW 20:36:09 62° NNE 20:40:16 10° E
Spot 2 Rocket 3.5 20:31:11 10° SSE 20:36:12 71° ENE 20:41:14 10° N
STARLINK-1191 3.1 20:34:01 10° WSW 20:37:07 75° NNW 20:40:14 10° ENE
STARLINK-1271 3.6 20:33:14 10° SW 20:37:19 61° SSE 20:41:25 10° ENE
Meteor 1-12 Rocket 4.5 20:32:22 10° N 20:37:58 58° ENE 20:43:33 10° SSE
COSMOS 2406 3.4 20:32:11 10° NNW 20:37:59 78° WSW 20:43:44 10° SSE
STARLINK-1221 3.1 20:34:55 10° WSW 20:38:01 74° NNW 20:41:07 10° ENE
STARLINK-1070 4.0 20:34:47 10° WNW 20:38:51 55° SSW 20:42:38 11° SE
STARLINK-1222 3.1 20:35:48 10° WSW 20:38:55 74° NNW 20:42:02 10° ENE
Cosmos 1544 3.3 20:35:57 10° NNW 20:39:35 69° W 20:43:10 10° S
STARLINK-1214 3.1 20:36:45 10° WSW 20:39:51 73° NNW 20:42:58 10° ENE
Cosmos 676 Rocket 4.0 20:35:38 10° NNW 20:40:54 86° ENE 20:46:11 10° SSE
STARLINK-1079 4.0 20:37:01 10° WNW 20:41:09 65° NNE 20:45:16 10° E
MetOp-B 4.2 20:36:43 10° SSE 20:42:04 87° WSW 20:47:28 10° NNW
SAR-Lupe-2 3.9 20:38:42 10° NNE 20:42:11 46° E 20:45:39 10° S
STARLINK-1154 3.6 20:38:12 10° SW 20:42:18 66° SSE 20:46:25 10° ENE
Meteor 2-4 Rocket 3.7 20:37:53 10° S 20:43:10 61° E 20:48:27 10° NNE
Cosmos 2151 Rocket 4.2 20:38:51 10° N 20:43:13 44° ENE 20:47:15 12° SSE
Cosmos 1634 Rocket 4.1 20:37:22 10° N 20:43:44 90° WNW 20:50:04 10° S
STARLINK-1069 4.0 20:39:47 10° WNW 20:43:48 51° SW 20:47:25 12° SE
Cosmos 371 Rocket 4.1 20:39:46 10° SSE 20:44:02 32° ESE 20:48:22 10° NE
SL-4 R/B 2.0 20:42:30 10° NNW 20:45:36 44° NE 20:48:05 13° ESE
STARLINK-1116 3.9 20:41:59 10° WNW 20:46:08 68° NNE 20:50:16 10° ESE
Cosmos 389 Rocket 4.3 20:44:04 10° SW 20:47:14 33° WNW 20:50:28 10° N
STARLINK-1197 3.5 20:43:08 10° SW 20:47:15 70° SSE 20:51:24 10° ENE
STARLINK-1228 3.8 20:44:34 10° W 20:47:56 56° NNW 20:51:19 10° ENE
Iridium 51 4.5 20:43:59 10° S 20:48:01 74° W 20:51:45 10° N
Cosmos 2056 Rocket 3.5 20:43:28 10° SSW 20:48:35 87° WNW 20:53:44 10° NNE
STARLINK-1085 4.1 20:44:47 10° WNW 20:48:47 47° SW 20:52:13 13° SE
STARLINK-1198 3.5 20:48:07 10° SW 20:52:15 75° SSE 20:56:24 10° ENE
STARLINK-1086 4.2 20:49:46 10° WNW 20:53:44 44° SW 20:56:59 14° SSE
Crew Dragon 0.0 20:53:54 10° WNW 20:55:58 72° NNE 20:57:34 16° ESE
STARLINK-1094 3.8 20:51:58 10° WNW 20:56:08 74° NNE 21:00:14 10° ESE
STARLINK-1199 3.5 20:53:03 10° WSW 20:57:12 79° SSE 21:01:21 10° ENE
STARLINK-1095 4.3 20:54:47 10° WNW 20:58:42 41° SW 21:01:47 15° SSE
NOSS 2-3 (E) 4.0 20:56:24 10° SW 21:00:45 74° NW 21:06:01 10° NE
STARLINK-1117 3.7 20:56:56 10° WNW 21:01:06 77° NNE 21:05:01 11° ESE
IGS 5A 3.5 20:57:51 11° S 21:01:53 80° WSW 21:06:04 10° NNW
STARLINK-1210 3.5 20:58:03 10° WSW 21:02:12 84° SSE 21:06:22 10° ENE
STARLINK-1077 4.4 20:59:47 10° WNW 21:03:39 38° SW 21:06:34 16° SSE
STARLINK-1200 4.4 21:01:10 10° SSW 21:04:45 29° SE 21:08:22 10° ENE
CARTOSAT-1 3.7 21:01:34 15° SSE 21:05:07 61° ENE 21:09:24 10° N
STARLINK-1078 3.7 21:01:56 10° WNW 21:06:06 81° NNE 21:09:48 13° ESE
BREEZE M DEB (TANK) 3.4 21:01:11 10° SW 21:06:44 35° SSE 21:09:12 10° E
STARLINK-1219 3.6 21:03:00 10° WSW 21:07:10 88° SSE 21:11:20 10° ENE
Okean 3 3.5 21:03:28 10° S 21:07:46 85° W 21:12:07 10° N
STARLINK-1192 4.3 21:06:02 10° SSW 21:09:42 31° SE 21:13:24 10° ENE
STARLINK-1108 3.6 21:06:54 10° WNW 21:11:05 85° NNE 21:14:35 14° ESE
Cosmos 2082 Rocket 2.3 21:05:42 10° NNW 21:11:27 81° ENE 21:16:03 16° SSE
STARLINK-1211 3.6 21:07:59 10° WSW 21:12:09 88° NNW 21:16:19 10° ENE
STARLINK-1121 4.5 21:09:05 10° WNW 21:13:08 49° N 21:17:11 10° E
SPOT 5 3.1 21:10:01 15° SSE 21:14:16 72° ENE 21:19:36 10° N
STARLINK-1244 4.2 21:10:54 10° SSW 21:14:39 34° SE 21:18:24 10° ENE
Cosmos 1833 Rocket 3.0 21:10:11 10° NNW 21:15:43 62° WSW 21:20:27 14° S
STARLINK-1071 3.6 21:11:53 10° WNW 21:16:03 89° N 21:19:21 16° ESE
STARLINK-1245 3.7 21:12:58 10° WSW 21:17:07 84° NNW 21:21:18 10° ENE
Cosmos 1461 4.2 21:15:49 18° SE 21:17:16 22° ESE 21:20:37 10° ENE
STARLINK-1106 4.5 21:14:05 10° WNW 21:18:08 50° N 21:22:11 10° E
Cosmos 1452 Rocket 3.5 21:14:09 10° S 21:19:21 66° ESE 21:24:37 10° NNE
STARLINK-1138 4.1 21:15:47 10° SSW 21:19:35 36° SE 21:23:24 10° ENE
STARLINK-1110 3.6 21:15:58 10° WNW 21:20:08 87° SSW 21:23:17 17° ESE
NOSS 2-3 (D) 4.5 21:16:33 10° WSW 21:20:52 58° NW 21:26:07 10° NE
STARLINK-1233 3.7 21:17:57 10° WSW 21:22:06 80° NNW 21:26:16 10° ENE
Cosmos 1300 Rocket 3.9 21:18:05 10° NNW 21:22:31 63° W 21:26:23 13° S
STARLINK-1112 4.4 21:19:06 10° WNW 21:23:09 51° N 21:27:13 10° E
Landsat 7 4.4 21:18:38 11° S 21:23:11 53° W 21:27:52 10° NNW
Cosmos 1420 Rocket 4.0 21:18:52 10° SSW 21:24:05 84° WNW 21:29:19 10° NNE
USA 215 3.8 21:17:46 10° E 21:24:09 58° NNE 21:30:33 10° NW
STARLINK-1143 4.0 21:20:41 10° SSW 21:24:32 39° SE 21:28:24 10° ENE
Aureole 2 Rocket 3.5 21:24:15 21° ESE 21:24:42 22° ESE 21:27:11 10° NE
STARLINK-1124 3.6 21:21:50 10° WNW 21:25:59 82° SSW 21:28:54 19° ESE
STARLINK-1204 3.8 21:22:57 10° WSW 21:27:06 76° NNW 21:31:16 10° ENE
Cosmos 2369 Rocket 4.0 21:26:14 12° ESE 21:27:39 13° E 21:29:57 10° ENE
Cosmos 304 Rocket 4.3 21:24:47 18° SSE 21:27:51 38° ESE 21:32:18 10° NE
STARLINK-1128 4.4 21:24:05 10° WNW 21:28:09 53° N 21:32:14 10° E
STARLINK-1203 4.0 21:24:13 10° SW 21:28:11 42° SE 21:32:10 10° ENE
STARLINK-1241 3.9 21:25:35 10° SW 21:29:30 42° SE 21:33:25 10° ENE
Cosmos 1805 4.2 21:25:56 10° N 21:29:33 34° ENE 21:31:34 21° SE
Cosmos 1943 Rocket 3.7 21:28:55 16° ESE 21:30:40 18° E 21:34:21 10° ENE
STARLINK-1122 3.6 21:26:49 10° WNW 21:30:58 78° SSW 21:33:41 21° SE
SL-8 R/B 3.7 21:26:36 10° W 21:31:26 87° S 21:36:16 10° E
STARLINK-1238 3.8 21:27:57 10° WSW 21:32:06 73° NNW 21:36:15 10° ENE
STARLINK-1113 4.3 21:29:04 10° WNW 21:33:08 54° NNE 21:37:13 10° E
STARLINK-1239 3.8 21:30:30 10° SW 21:34:27 45° SE 21:38:25 10° ENE
Cosmos 1066 Rocket 4.2 21:31:09 17° S 21:35:17 58° E 21:40:33 10° NNE
ERBS 2.1 21:32:27 10° SW 21:35:45 89° SSE 21:39:05 10° NE
STARLINK-1126 3.6 21:31:50 10° WNW 21:35:59 73° SSW 21:38:31 23° SE
STARLINK-1201 3.9 21:32:57 10° WSW 21:37:05 69° NNW 21:41:14 10° ENE
Cosmos 332 Rocket 3.8 21:32:39 10° SSW 21:37:30 71° ESE 21:42:24 10° NNE
STARLINK-1119 4.2 21:34:03 10° WNW 21:38:09 56° NNE 21:42:13 10° E
STARLINK-1240 3.8 21:35:26 10° SW 21:39:25 48° SE 21:43:26 10° ENE
Cosmos 1674 Rocket 3.5 21:36:51 16° S 21:40:20 87° E 21:44:46 10° N
STARLINK-1082 3.6 21:36:47 10° WNW 21:40:55 69° SSW 21:43:15 24° SE
Meteor 1-15 Rocket 4.3 21:35:57 10° NNW 21:41:56 90° ENE 21:46:14 20° S
STARLINK-1206 4.0 21:37:56 10° WSW 21:42:04 67° NNW 21:46:12 10° ENE
CENTAUR R/B 4.1 21:35:11 10° NW 21:42:25 42° NNE 21:50:27 10° E
STARLINK-1114 4.2 21:39:01 10° WNW 21:43:08 57° NNE 21:47:13 10° E
STARLINK-1216 3.7 21:40:21 10° SW 21:44:22 52° SE 21:48:25 10° ENE
SPOT 1/Viking Rocket 4.5 21:40:43 12° SSW 21:45:16 43° W 21:50:11 10° NNW
NOSS 2-2 (E) 4.1 21:45:11 27° SE 21:45:38 27° ESE 21:49:01 10° ENE
STARLINK-1100 3.6 21:41:47 10° WNW 21:45:54 64° SSW 21:48:03 26° SE
Cosmos 2278 Rocket 2.9 21:40:50 10° SW 21:46:24 56° WNW 21:52:01 10° NNE
Cosmos 1378 Rocket 3.5 21:43:25 20° S 21:46:29 78° E 21:50:54 10° NNE
STARLINK-1205 4.1 21:42:56 10° W 21:47:04 64° NNW 21:51:11 10° ENE
STARLINK-1130 (DARKSAT) 4.1 21:44:01 10° WNW 21:48:09 59° NNE 21:52:04 11° E
NOSS 8 (E) 4.2 21:47:09 21° SSW 21:49:02 56° SE 21:52:02 10° NE
STARLINK-1237 3.6 21:45:17 10° SW 21:49:20 56° SSE 21:53:24 10° ENE
STARLINK-1083 3.7 21:46:44 10° WNW 21:50:50 60° SSW 21:52:48 28° SE
deb Kosmos-1763 4.0 21:47:19 10° NNW 21:50:56 76° ENE 21:52:28 32° SSE
Cosmos 1741 Rocket 4.2 21:46:06 10° NNW 21:51:16 65° WSW 21:54:36 22° S
STARLINK-1218 4.1 21:47:55 10° W 21:52:02 62° NNW 21:56:09 10° ENE
Resurs 01 Rocket 4.3 21:50:33 10° WSW 21:52:11 12° W 21:53:49 10° WNW
STARLINK-1084 4.0 21:48:59 10° WNW 21:53:07 62° NNE 21:56:49 12° E
STARLINK-1202 3.6 21:50:14 10° SW 21:54:19 60° SSE 21:58:25 10° ENE
STARLINK-1125 3.8 21:51:45 10° WNW 21:55:49 56° SSW 21:57:36 30° SSE
Abrixas rocket 1.7 21:53:16 10° W 21:56:12 76° S 21:57:11 38° ESE
Cosmos 1437 Rocket 3.2 21:53:11 14° SSW 21:56:16 56° WNW 22:00:02 10° N
STARLINK-1254 4.2 21:52:55 10° W 21:57:02 59° NNW 22:01:09 10° ENE
Okean 2 4.1 21:56:17 28° SE 21:57:48 39° E 22:01:41 10° NNE
STARLINK-1098 4.0 21:53:59 10° WNW 21:58:07 64° NNE 22:01:37 14° E
SeaSat 1 3.0 21:54:39 10° NE 21:59:17 40° ESE 22:01:27 26° SSE
Cosmos 1975 Rocket 3.8 21:57:35 27° SE 21:59:21 38° E 22:03:29 10° NNE
STARLINK-1109 3.9 21:56:44 10° WNW 22:00:46 52° SW 22:02:22 32° SSE
STARLINK-1212 4.4 21:57:53 10° WNW 22:00:50 37° N 22:03:45 10° ENE
ISS -3.2 21:57:59 10° WNW 22:01:11 40° SSW 22:01:47 36° S
STARLINK-1105 4.4 21:58:21 10° WNW 22:01:17 37° N 22:04:13 10° ENE
STARLINK-1234 4.5 21:58:22 10° WNW 22:01:23 37° N 22:04:24 10° ENE
STARLINK-1231 4.3 21:57:56 10° W 22:02:02 57° NNW 22:06:08 10° ENE
STARLINK-1247 4.4 21:59:14 10° WNW 22:02:11 37° N 22:05:08 10° ENE
STARLINK-1227 4.4 21:59:41 10° WNW 22:02:37 37° N 22:05:33 10° ENE
STARLINK-1123 3.9 21:58:58 10° WNW 22:03:07 67° NNE 22:06:24 16° E
STARLINK-1226 4.4 22:00:36 10° WNW 22:03:32 37° N 22:06:29 10° ENE
ERS-1 Rocket 4.0 22:00:14 15° SSW 22:04:02 38° W 22:08:45 10° NNW
STARLINK-1246 3.5 22:00:07 10° SW 22:04:14 68° SSE 22:08:22 10° ENE
STARLINK-1215 4.4 22:01:30 10° WNW 22:04:26 37° N 22:07:23 10° ENE
Nadezhda 4 Rocket 4.0 22:00:38 16° S 22:05:43 83° W 22:11:53 10° N
STARLINK-1091 3.9 22:01:43 10° WNW 22:05:43 49° SW 22:07:08 33° SSE
STARLINK-1217 4.5 22:03:19 10° WNW 22:06:15 37° N 22:09:12 10° ENE
STARLINK-1232 4.3 22:02:56 10° W 22:07:01 56° NNW 22:11:07 10° ENE
STARLINK-1229 4.5 22:04:12 10° WNW 22:07:08 37° N 22:10:05 10° ENE
Terra 2.3 22:04:56 21° S 22:07:54 53° W 22:12:35 10° NNW
STARLINK-1270 4.5 22:05:07 10° WNW 22:08:03 37° N 22:11:00 10° ENE
STARLINK-1097 3.8 22:03:56 10° WNW 22:08:05 69° NNE 22:11:10 17° ESE
NOSS 2-2 (C) 3.7 22:08:29 35° SE 22:08:51 36° ESE 22:12:28 10° NE
STARLINK-1224 3.5 22:05:05 10° SW 22:09:13 73° SSE 22:13:22 10° ENE
STARLINK-1189 4.5 22:06:54 10° WNW 22:09:51 36° N 22:12:47 10° ENE
ATLAS 2AS CENTAUR R/B 4.3 22:08:00 18° SE 22:10:23 21° ESE 22:15:52 10° ENE
STARLINK-1072 4.0 22:06:43 10° WNW 22:10:41 45° SW 22:11:56 34° S
STARLINK-1188 4.5 22:07:50 10° WNW 22:10:47 36° N 22:13:43 10° ENE
STARLINK-1209 4.5 22:07:55 10° WNW 22:10:59 37° N 22:14:02 10° ENE
STARLINK-1235 4.5 22:08:35 10° WNW 22:11:30 36° N 22:14:26 10° ENE
STARLINK-1187 4.5 22:08:59 10° WNW 22:11:53 36° N 22:14:47 10° ENE
STARLINK-1208 4.4 22:07:57 10° W 22:12:01 54° NNW 22:16:07 10° ENE
Cosmos 1242 Rocket 4.0 22:11:39 22° ESE 22:12:06 22° E 22:15:01 10° NE
Cosmos 1110 Rocket 3.9 22:08:58 21° SSW 22:12:28 74° ESE 22:17:39 10° NNE
STARLINK-1099 3.8 22:08:56 10° WNW 22:13:05 73° NNE 22:15:57 19° ESE
STARLINK-1191 4.5 22:10:18 10° WNW 22:13:14 36° N 22:16:09 10° ENE
STARLINK-1221 4.5 22:11:12 10° WNW 22:14:07 36° N 22:17:03 10° ENE
STARLINK-1225 3.5 22:10:02 10° WSW 22:14:10 77° SSE 22:18:20 10° ENE
NOSS 3-2 (A) 4.2 22:07:27 10° NW 22:14:49 72° NE 22:21:23 18° SE
STARLINK-1222 4.5 22:12:06 10° WNW 22:15:02 36° N 22:17:57 10° ENE
STARLINK-1096 4.1 22:11:44 10° WNW 22:15:39 42° SW 22:16:44 34° S
STARLINK-1214 4.5 22:13:02 10° WNW 22:15:58 36° N 22:18:53 10° ENE
BREEZE-M DEB (TANK) 2.9 22:11:58 10° W 22:16:08 81° N 22:19:51 10° E
STARLINK-1271 4.4 22:12:57 10° W 22:17:00 53° NNW 22:21:05 10° ENE
STARLINK-1104 3.7 22:13:53 10° WNW 22:18:02 76° NNE 22:20:42 21° ESE
Cosmos 1766 3.3 22:14:04 10° NNW 22:18:03 80° W 22:19:37 35° S
SL-4 R/B 3.6 22:16:41 10° WNW 22:18:18 14° WSW 22:18:54 13° WSW
Lacrosse 5 2.8 22:13:53 10° WNW 22:18:25 34° SW 22:20:16 26° S
STARLINK-1230 3.5 22:15:02 10° WSW 22:19:10 82° SSE 22:23:19 10° ENE
BREEZE-M DEB (TANK) 3.6 22:04:25 10° WSW 22:19:15 70° SSE 22:23:08 10° ENE
Okean 1 Rocket 3.9 22:15:50 10° NNW 22:20:06 44° W 22:22:37 22° SSW
Spot 4 4.2 22:17:50 28° SE 22:20:14 58° ENE 22:25:01 10° N
STARLINK-1079 4.2 22:16:44 10° WNW 22:20:37 39° SW 22:21:31 34° S
Cosmos 1271 Rocket 4.2 22:20:18 21° ESE 22:20:51 22° E 22:23:52 10° NE
STARLINK-1154 4.5 22:17:58 10° W 22:22:01 51° N 22:26:05 10° ENE
STARLINK-1144 3.6 22:18:53 10° WNW 22:23:02 80° NNE 22:25:30 24° ESE
USA 238 DEB 3.9 22:16:17 10° NW 22:23:29 77° NE 22:28:52 20° SE
USA 238 3.9 22:16:22 10° NW 22:23:35 77° NE 22:28:59 20° SE
STARLINK-1243 3.5 22:19:58 10° WSW 22:24:08 86° SSE 22:28:18 10° ENE
STARLINK-1228 4.5 22:21:59 10° WNW 22:25:14 40° N 22:28:29 10° ENE
EXPRESS MD2 4.0 22:21:23 10° SW 22:25:17 66° SSE 22:33:24 10° ENE
Cosmos 1733 3.1 22:21:27 10° N 22:25:17 85° W 22:26:32 41° S
STARLINK-1116 4.3 22:21:44 10° WNW 22:25:34 36° SW 22:26:17 33° SSW
STARLINK-1103 3.6 22:23:52 10° WNW 22:28:02 84° NNE 22:30:17 26° ESE
Cosmos 1707 4.2 22:28:29 22° ESE 22:29:07 23° E 22:32:15 10° NE
STARLINK-1236 3.5 22:24:58 10° WSW 22:29:08 89° NNW 22:33:18 10° ENE
SL-4 R/B 2.7 22:29:44 20° NE 22:29:44 20° NE 22:31:07 10° NNE
Cosmos 1455 Rocket 3.0 22:26:38 10° N 22:31:00 75° E 22:32:37 38° SSE
Cosmos 1953 4.0 22:29:33 10° NNE 22:32:49 23° ENE 22:34:15 19° E
Cosmos 1486 Rocket 4.4 22:27:33 10° NNW 22:32:49 56° ENE 22:35:35 27° SE
STARLINK-1101 3.5 22:28:50 10° WNW 22:33:01 88° NNE 22:35:04 29° ESE
Cosmos 1331 Rocket 4.0 22:30:41 21° SSW 22:34:14 82° WNW 22:39:27 10° NNE
Cosmos 1025 Rocket 4.0 22:34:49 28° ESE 22:35:50 31° E 22:39:38 10° NNE
STARLINK-1102 3.5 22:33:49 10° WNW 22:37:59 88° SW 22:39:51 32° ESE
STARLINK-1269 3.6 22:34:55 10° WSW 22:39:04 81° NNW 22:43:14 10° ENE
Cosmos 1302 Rocket 4.1 22:37:48 32° S 22:40:12 63° ESE 22:45:27 10° NNE
STARLINK-1111 3.5 22:38:49 10° WNW 22:42:58 84° SSW 22:44:38 35° ESE
Cosmos 1758 3.7 22:39:14 10° N 22:43:12 53° ENE 22:44:24 38° SE
STARLINK-1200 3.7 22:39:55 10° WSW 22:44:05 77° NNW 22:48:14 10° ENE
Cosmos 2297 4.1 22:39:18 11° SW 22:44:49 64° WNW 22:50:32 10° NNE
Cosmos 1092 Rocket 4.2 22:41:42 21° SSW 22:45:56 67° WNW 22:52:04 10° N
STARLINK-1073 3.5 22:43:48 10° WNW 22:47:57 79° SSW 22:49:25 39° SE
Cosmos 1900 4.3 22:43:15 10° NW 22:48:17 74° WSW 22:50:18 36° SSE
STARLINK-1192 3.8 22:44:55 10° WSW 22:49:04 74° NNW 22:53:13 10° ENE
Meteor 2-13 Rocket 4.4 22:45:42 28° S 22:49:09 86° E 22:55:22 10° N
Aureole 3 Rocket 4.0 22:45:28 10° N 22:50:53 86° E 22:54:52 29° S
STARLINK-1121 3.5 22:48:46 10° WNW 22:52:55 75° SSW 22:54:12 42° SE
STARLINK-1244 3.8 22:49:54 10° WSW 22:54:03 71° NNW 22:58:12 10° ENE
Cosmos 2082 Rocket 4.1 22:51:03 10° WNW 22:54:50 18° W 22:57:54 12° SW
Cosmos 1461 3.7 22:52:06 11° WSW 22:56:01 53° NW 23:00:21 10° NNE
EO 1 Del DPAF 3.5 22:53:51 10° N 22:57:36 64° WNW 22:58:54 37° SW
STARLINK-1106 3.5 22:53:45 10° WNW 22:57:53 70° SSW 22:58:58 46° SE
Aureole 2 Rocket 4.3 22:56:17 13° WSW 22:58:18 23° WNW 23:00:50 10° N
SL-4 R/B 4.2 22:59:59 17° ESE 22:59:59 17° ESE 23:01:49 10° E
Cosmos 1536 Rocket 4.0 22:57:54 38° SE 22:58:58 47° E 23:03:09 10° NNE
SL-27 R/B 2.4 22:55:23 10° NNW 22:59:01 81° WSW 22:59:33 62° S
STARLINK-1138 3.9 22:54:53 10° WSW 22:59:01 68° NNW 23:03:10 10° ENE
ATLAS 5 CENTAUR R/B 2.9 23:00:58 22° E 23:00:58 22° E 23:01:59 10° ENE
Cosmos 1470 2.6 22:56:08 10° N 23:00:02 87° W 23:00:55 53° S
Thor Agena Rocket 3.8 22:56:53 10° N 23:02:10 68° WNW 23:05:15 25° SSW
ALOS 2 2.6 23:01:01 41° SSE 23:02:29 73° ENE 23:06:53 10° N
STARLINK-1112 3.5 22:58:46 10° WNW 23:02:53 66° SSW 23:03:46 49° SSE
STARLINK-1143 4.0 22:59:53 10° W 23:04:01 65° NNW 23:08:08 10° ENE
Cosmos 1544 Rocket 3.7 23:02:44 10° NNW 23:07:03 65° W 23:08:21 42° SSW
USA 215 3.2 23:03:19 27° SE 23:07:09 66° SW 23:13:40 10° WNW
ATLAS CENTAUR R/B 4.0 23:06:33 10° NNW 23:07:32 12° NNE 23:08:42 10° NE
STARLINK-1128 3.6 23:03:45 10° WNW 23:07:51 62° SSW 23:08:33 52° SSE
STARLINK-1203 4.1 23:03:44 10° W 23:07:55 63° NNW 23:12:06 10° ENE
STARLINK-1241 4.1 23:04:54 10° W 23:09:00 62° NNW 23:13:08 10° ENE
Cosmos 1992 Rocket 4.4 23:08:31 35° SSE 23:10:04 46° ESE 23:15:02 10° NNE
COSMOS 2487 4.1 23:07:40 10° N 23:10:39 26° ENE 23:11:49 22° E
Cosmos 2369 Rocket 2.1 23:08:00 32° SSW 23:10:41 75° ESE 23:16:21 10° NNE
STARLINK-1113 3.6 23:08:43 10° WNW 23:12:49 57° SSW 23:13:19 52° S
Cosmos 1943 Rocket 2.2 23:10:23 25° SW 23:13:43 79° WNW 23:19:21 10° NNE
SL-8 R/B 3.8 23:09:09 10° W 23:13:51 54° SSW 23:15:05 42° SSE
STARLINK-1239 4.1 23:09:53 10° W 23:14:00 60° NNW 23:18:07 10° ENE
S3M 3.9 23:10:03 10° N 23:16:14 88° E 23:19:11 34° S
NOSS 2-2 (D) 3.8 23:15:09 21° WSW 23:17:22 54° NW 23:21:28 10° NE
STARLINK-1119 3.7 23:13:43 10° WNW 23:17:46 54° SSW 23:18:06 52° SSW
Cosmos 2292 Rocket 3.9 23:17:52 38° SE 23:18:37 43° E 23:22:00 10° NNE
STARLINK-1240 4.2 23:14:54 10° W 23:19:00 58° NNW 23:23:06 10° ENE
NOSS 3-2 (C) 4.0 23:13:41 10° NW 23:21:10 81° SW 23:26:35 25° SSE
STARLINK-1114 3.8 23:18:42 10° WNW 23:22:43 50° SW 23:22:52 50° SSW
Cosmos 1655 Rocket 3.9 23:20:26 33° S 23:23:25 82° E 23:29:42 10° N
STARLINK-1216 4.3 23:19:54 10° W 23:23:59 56° NNW 23:28:05 10° ENE
ATLAS CENTAUR R/B 3.0 23:25:24 21° ESE 23:25:24 21° ESE 23:28:18 10° ENE
Cosmos 1726 2.1 23:21:23 10° N 23:25:06 70° E 23:25:42 57° SE
STARLINK-1130 (DARKSAT) 3.9 23:23:43 10° WNW 23:27:40 46° SW 23:27:40 46° SW
STARLINK-1237 4.3 23:24:54 10° W 23:28:59 55° NNW 23:33:04 10° ENE
NOSS 3-4 (A) 3.7 23:29:50 35° SSE 23:31:49 47° ESE 23:37:50 10° NE
NOSS 3-4 (C) 3.8 23:29:57 35° SSE 23:31:56 47° ESE 23:37:56 10° NE
ATLAS 3B R/B 3.1 23:25:18 10° NW 23:32:01 62° NE 23:38:47 11° ESE
Landsat 4 4.0 23:28:32 10° NNE 23:32:09 48° E 23:32:31 46° ESE
Cosmos 1553 Rocket 4.4 23:26:29 10° NNW 23:32:38 55° W 23:35:37 30° SSW
STARLINK-1084 4.0 23:28:42 10° WNW 23:32:26 43° SW 23:32:26 43° SW
Cosmos 1606 Rocket 4.3 23:29:26 10° N 23:33:34 42° ENE 23:35:05 31° ESE
CENTAUR R/B 3.1 23:25:54 10° NW 23:33:55 80° SW 23:39:47 24° SSE
STARLINK-1202 4.4 23:29:55 10° W 23:33:59 53° NNW 23:38:04 10° ENE
SeaSat 1 3.7 23:32:14 10° NNE 23:36:48 38° NW 23:41:14 11° WSW
STARLINK-1212 3.8 23:33:59 10° WNW 23:37:01 49° NNE 23:38:54 20° E
STARLINK-1105 3.8 23:34:26 10° WNW 23:37:29 49° NNE 23:39:21 20° E
STARLINK-1098 4.2 23:33:43 10° WNW 23:37:14 39° SW 23:37:14 39° SW
STARLINK-1234 3.5 23:34:35 10° WNW 23:37:45 58° NNE 23:39:05 30° E
STARLINK-1247 3.7 23:35:19 10° WNW 23:38:23 49° NNE 23:40:17 20° E
STARLINK-1227 3.7 23:35:47 10° WNW 23:38:49 49° NNE 23:40:35 21° E
STARLINK-1226 3.7 23:36:40 10° WNW 23:39:44 50° NNE 23:41:35 21° E
RESURS DK-1 4.5 23:39:42 15° ESE 23:39:51 15° ESE 23:42:10 10° ENE
STARLINK-1215 3.7 23:37:34 10° WNW 23:40:38 50° NNE 23:42:26 21° E
Cosmos 292 Rocket 4.0 23:39:18 32° SW 23:41:27 66° WNW 23:46:18 10° NNE
STARLINK-1217 3.7 23:39:23 10° WNW 23:42:27 51° NNE 23:44:11 22° E
STARLINK-1123 4.4 23:38:43 10° WNW 23:42:01 35° WSW 23:42:01 35° WSW
STARLINK-1229 3.6 23:40:15 10° WNW 23:43:20 52° NNE 23:45:02 23° E
STARLINK-1246 4.5 23:39:55 10° W 23:43:59 51° N 23:48:02 10° ENE
STARLINK-1270 3.6 23:41:10 10° WNW 23:44:15 52° NNE 23:45:55 23° E
STARLINK-1189 3.6 23:42:58 10° WNW 23:46:02 53° NNE 23:47:37 24° E
Cosmos 1242 Rocket 4.1 23:45:39 23° WSW 23:46:50 28° WNW 23:50:06 10° N
STARLINK-1188 3.6 23:43:53 10° WNW 23:46:58 54° NNE 23:48:31 25° E
STARLINK-1209 3.2 23:44:21 10° WNW 23:47:35 67° NNE 23:48:28 43° E
STARLINK-1235 3.3 23:44:34 10° WNW 23:47:40 61° NNE 23:48:26 43° ENE
STARLINK-1187 3.4 23:44:59 10° WNW 23:48:02 57° NNE 23:49:04 35° E
YAOGAN 11 4.0 23:46:53 47° SSE 23:48:08 87° WSW 23:52:30 10° NNW
Cosmos 2263 4.2 23:46:08 31° SW 23:48:58 80° WNW 23:54:37 10° NNE
STARLINK-1191 3.5 23:46:20 10° WNW 23:49:24 55° NNE 23:50:48 27° E
STARLINK-1221 3.5 23:47:13 10° WNW 23:50:17 55° NNE 23:51:40 28° E
STARLINK-1222 3.5 23:48:08 10° WNW 23:51:12 56° NNE 23:52:32 29° E
Cosmos 1626 3.9 23:50:51 20° ESE 23:51:33 21° E 23:54:24 10° NE
STARLINK-1214 3.4 23:49:03 10° WNW 23:52:08 56° NNE 23:53:25 30° E
Cosmos 1503 Rocket 4.2 23:47:12 10° NNW 23:52:24 60° WSW 23:54:12 39° SSW
Helios 1A 3.1 23:52:18 47° SSW 23:53:13 59° WSW 23:57:22 10° NNW
Cosmos 1656 Rocket 3.6 23:51:32 36° SSW 23:53:58 83° ESE 23:59:36 10° NNE
